TimeCST,TemperatureF,Dew PointF,Humidity,Sea Level PressureIn,VisibilityMPH,Wind Direction,Wind SpeedMPH,Gust SpeedMPH,PrecipitationIn,Events,Conditions,WindDirDegrees,DateUTC
12:15 AM,39.7,30.2,69,30.18,10.0,SSW,12.7,-,N/A,,Clear,200,2013-01-19 06:15:00
12:35 AM,39.6,30.2,69,30.18,10.0,SSW,11.5,-,N/A,,Clear,200,2013-01-19 06:35:00
12:55 AM,40.3,30.6,68,30.19,10.0,SSW,15.0,18.4,N/A,,Clear,200,2013-01-19 06:55:00
1:15 AM,39.4,30.9,72,30.20,10.0,SSW,11.5,-,N/A,,Clear,200,2013-01-19 07:15:00
1:35 AM,39.4,31.1,72,30.19,10.0,South,12.7,18.4,N/A,,Clear,190,2013-01-19 07:35:00
1:55 AM,39.7,30.9,71,30.19,10.0,SSW,13.8,-,N/A,,Clear,200,2013-01-19 07:55:00
2:15 AM,39.4,31.1,72,30.18,10.0,South,12.7,-,N/A,,Clear,190,2013-01-19 08:15:00
2:35 AM,39.6,30.9,71,30.18,10.0,South,12.7,-,N/A,,Clear,190,2013-01-19 08:35:00
2:55 AM,39.2,30.7,72,30.18,10.0,South,10.4,17.3,N/A,,Clear,190,2013-01-19 08:55:00
3:15 AM,38.8,30.6,72,30.17,10.0,SSW,11.5,-,N/A,,Clear,200,2013-01-19 09:15:00
3:35 AM,38.8,30.6,72,30.16,10.0,SSW,11.5,-,N/A,,Clear,200,2013-01-19 09:35:00
3:55 AM,39.4,30.2,70,30.16,10.0,SSW,15.0,20.7,N/A,,Clear,200,2013-01-19 09:55:00
4:15 AM,39.4,30.4,70,30.15,10.0,SSW,15.0,-,N/A,,Clear,200,2013-01-19 10:15:00
4:35 AM,39.6,30.4,70,30.15,10.0,SSW,13.8,-,N/A,,Clear,200,2013-01-19 10:35:00
4:55 AM,39.6,30.2,69,30.14,10.0,SSW,17.3,-,N/A,,Clear,200,2013-01-19 10:55:00
5:15 AM,39.2,30.2,70,30.13,10.0,South,16.1,20.7,N/A,,Clear,190,2013-01-19 11:15:00
5:35 AM,38.8,30.2,71,30.13,10.0,South,16.1,-,N/A,,Clear,190,2013-01-19 11:35:00
6:36 AM,39.2,30.2,70,30.12,10.0,South,16.1,-,N/A,,Clear,190,2013-01-19 12:36:00
6:55 AM,38.3,30.0,72,30.12,10.0,South,15.0,-,N/A,,Clear,190,2013-01-19 12:55:00
7:15 AM,38.7,30.0,71,30.11,10.0,South,19.6,23.0,N/A,,Clear,190,2013-01-19 13:15:00
7:55 AM,39.7,30.2,69,30.11,10.0,South,18.4,24.2,N/A,,Clear,190,2013-01-19 13:55:00
7:56 AM,39.2,30.2,70,30.11,10.0,South,17.3,24.2,N/A,,Clear,190,2013-01-19 13:56:00
8:15 AM,40.5,30.2,67,30.11,10.0,South,16.1,21.9,N/A,,Clear,190,2013-01-19 14:15:00
8:35 AM,41.2,30.7,66,30.11,10.0,South,16.1,-,N/A,,Clear,190,2013-01-19 14:35:00
9:35 AM,44.6,31.6,60,30.10,10.0,South,15.0,21.9,N/A,,Clear,190,2013-01-19 15:35:00
9:55 AM,46.2,31.8,57,30.10,10.0,South,13.8,21.9,N/A,,Clear,190,2013-01-19 15:55:00
10:15 AM,47.5,32.4,56,30.10,10.0,South,13.8,25.3,N/A,,Clear,190,2013-01-19 16:15:00
10:35 AM,48.9,32.2,52,30.08,10.0,South,19.6,25.3,N/A,,Clear,190,2013-01-19 16:35:00
11:15 AM,50.4,32.9,51,30.05,10.0,South,21.9,28.8,N/A,,Clear,190,2013-01-19 17:15:00
11:35 AM,50.9,33.3,51,30.04,10.0,SSW,18.4,24.2,N/A,,Clear,200,2013-01-19 17:35:00
11:55 AM,51.3,33.6,51,30.01,10.0,South,23.0,28.8,N/A,,Clear,190,2013-01-19 17:55:00
12:15 PM,52.0,34.0,50,30.00,10.0,South,20.7,28.8,N/A,,Clear,190,2013-01-19 18:15:00
12:35 PM,52.7,35.6,52,29.99,10.0,South,17.3,25.3,N/A,,Clear,190,2013-01-19 18:35:00
12:55 PM,53.2,35.4,51,29.98,10.0,SSW,21.9,26.5,N/A,,Clear,200,2013-01-19 18:55:00
1:15 PM,53.8,36.1,51,29.97,10.0,South,16.1,26.5,N/A,,Clear,190,2013-01-19 19:15:00
1:35 PM,54.3,36.0,50,29.96,10.0,South,16.1,21.9,N/A,,Clear,190,2013-01-19 19:35:00
1:55 PM,54.7,37.0,51,29.96,10.0,South,18.4,24.2,N/A,,Clear,190,2013-01-19 19:55:00
2:15 PM,54.9,37.4,52,29.95,10.0,South,18.4,25.3,N/A,,Clear,190,2013-01-19 20:15:00
2:35 PM,55.0,36.7,50,29.94,10.0,South,18.4,26.5,N/A,,Clear,190,2013-01-19 20:35:00
2:55 PM,54.9,37.0,51,29.93,10.0,South,19.6,27.6,N/A,,Clear,190,2013-01-19 20:55:00
3:15 PM,55.0,36.7,50,29.94,10.0,SSW,17.3,25.3,N/A,,Clear,200,2013-01-19 21:15:00
3:35 PM,55.0,36.7,50,29.94,10.0,South,18.4,25.3,N/A,,Clear,190,2013-01-19 21:35:00
3:55 PM,54.9,36.9,51,29.95,10.0,SSW,15.0,20.7,N/A,,Clear,200,2013-01-19 21:55:00
4:15 PM,54.0,37.2,53,29.95,10.0,South,16.1,23.0,N/A,,Clear,190,2013-01-19 22:15:00
4:35 PM,52.7,37.2,56,29.95,10.0,South,17.3,20.7,N/A,,Clear,190,2013-01-19 22:35:00
4:55 PM,51.8,37.0,57,29.95,10.0,South,15.0,21.9,N/A,,Clear,190,2013-01-19 22:55:00
5:15 PM,50.9,36.7,58,29.96,10.0,South,15.0,-,N/A,,Clear,190,2013-01-19 23:15:00
5:35 PM,50.5,36.5,59,29.97,10.0,SSW,13.8,19.6,N/A,,Clear,200,2013-01-19 23:35:00
5:55 PM,50.5,36.3,58,29.98,10.0,SSW,12.7,-,N/A,,Clear,200,2013-01-19 23:55:00
6:15 PM,49.3,36.5,61,29.98,10.0,SSW,15.0,19.6,N/A,,Clear,200,2013-01-20 00:15:00
6:35 PM,49.3,36.9,62,29.99,10.0,SSW,16.1,21.9,N/A,,Clear,200,2013-01-20 00:35:00
6:55 PM,49.1,37.0,63,30.00,10.0,SSW,16.1,21.9,N/A,,Clear,210,2013-01-20 00:55:00
7:15 PM,48.2,37.4,66,30.00,10.0,SSW,16.1,24.2,N/A,,Clear,210,2013-01-20 01:15:00
7:35 PM,48.2,37.6,67,30.01,10.0,SSW,15.0,20.7,N/A,,Clear,210,2013-01-20 01:35:00
7:55 PM,47.5,37.8,69,30.02,10.0,SW,10.4,-,N/A,,Clear,220,2013-01-20 01:55:00
8:15 PM,47.5,37.9,69,30.03,10.0,SW,11.5,-,N/A,,Clear,220,2013-01-20 02:15:00
8:35 PM,46.2,37.8,72,30.04,10.0,SW,10.4,-,N/A,,Clear,230,2013-01-20 02:35:00
8:55 PM,45.1,37.6,75,30.05,10.0,SW,10.4,-,N/A,,Clear,230,2013-01-20 02:55:00
9:15 PM,45.0,37.4,75,30.05,10.0,SW,10.4,-,N/A,,Clear,230,2013-01-20 03:15:00
9:35 PM,44.6,36.9,74,30.05,10.0,SW,9.2,-,N/A,,Clear,220,2013-01-20 03:35:00
9:55 PM,44.2,36.7,75,30.05,10.0,SW,9.2,-,N/A,,Clear,230,2013-01-20 03:55:00
10:15 PM,44.4,36.1,73,30.06,10.0,WSW,9.2,-,N/A,,Clear,240,2013-01-20 04:15:00
10:35 PM,43.9,35.6,73,30.07,10.0,WSW,9.2,-,N/A,,Clear,240,2013-01-20 04:35:00
10:55 PM,43.7,35.1,72,30.07,10.0,WSW,9.2,-,N/A,,Clear,250,2013-01-20 04:55:00
11:15 PM,44.8,34.2,66,30.08,10.0,West,11.5,-,N/A,,Clear,280,2013-01-20 05:15:00
11:35 PM,46.0,33.3,61,30.08,10.0,West,8.1,-,N/A,,Clear,280,2013-01-20 05:35:00
11:55 PM,44.6,33.8,66,30.08,10.0,West,8.1,-,N/A,,Clear,280,2013-01-20 05:55:00